This is the latest recevied weather packets stored in our database for station/object PU5BHV. If no packets are shown the sender has not sent any weather packets the latest 10 day(s).
| Time | Temp. | Humidity | Pressure | Rain* | Wind** | Luminosity | Snow |
|---|---|---|---|---|---|---|---|
| 1777824714 | 20° C | 61% | 1023.1 hPa | 0 mm | - | 307 W/m² | - |
| 1777824412 | 20° C | 63% | 1023.1 hPa | 0 mm | - | 347 W/m² | - |
| 1777824107 | 20° C | 64% | 1023.1 hPa | 0 mm | - | 263 W/m² | - |
| 1777823804 | 20° C | 63% | 1023.1 hPa | 0 mm | - | 263 W/m² | - |
| 1777823502 | 20° C | 64% | 1023 hPa | 0 mm | - | 255 W/m² | - |
| 1777823198 | 19.44° C | 66% | 1023.4 hPa | 0 mm | - | 304 W/m² | - |
| 1777822897 | 19.44° C | 67% | 1023.3 hPa | 0 mm | - | 291 W/m² | - |
| 1777822594 | 19.44° C | 70% | 1023.6 hPa | 0 mm | - | 242 W/m² | - |
| 1777822291 | 18.89° C | 70% | 1023.8 hPa | 0 mm | - | 217 W/m² | - |
| 1777821989 | 18.89° C | 70% | 1023.6 hPa | 0 mm | - | 213 W/m² | - |
| 1777821686 | 18.89° C | 70% | 1023.7 hPa | 0 mm | - | 183 W/m² | - |
| 1777821384 | 18.89° C | 71% | 1024 hPa | 0 mm | - | 222 W/m² | - |
| 1777821081 | 18.33° C | 73% | 1024 hPa | 0 mm | - | 220 W/m² | - |
| 1777820778 | 18.33° C | 75% | 1023.9 hPa | 0 mm | - | 168 W/m² | - |
| 1777820474 | 18.33° C | 74% | 1024 hPa | 0 mm | - | 122 W/m² | - |
| 1777820171 | 17.78° C | 75% | 1024 hPa | 0 mm | - | 109 W/m² | - |
| 1777819868 | 17.78° C | 75% | 1023.9 hPa | 0 mm | - | 98 W/m² | - |
| 1777819565 | 17.78° C | 75% | 1023.8 hPa | 0 mm | - | 83 W/m² | - |
| 1777819263 | 17.78° C | 75% | 1024.1 hPa | 0 mm | - | 88 W/m² | - |
| 1777818959 | 17.78° C | 77% | 1024 hPa | 0 mm | - | 100 W/m² | - |
| 1777818656 | 17.78° C | 77% | 1024.2 hPa | 0 mm | - | 105 W/m² | - |
| 1777818353 | 17.78° C | 78% | 1024.1 hPa | 0 mm | - | 92 W/m² | - |
| 1777818050 | 17.78° C | 79% | 1024.3 hPa | 0 mm | - | 59 W/m² | - |
| 1777817747 | 17.78° C | 80% | 1024.3 hPa | 0 mm | - | 56 W/m² | - |
| 1777817444 | 17.78° C | 82% | 1024.3 hPa | 0 mm | - | 49 W/m² | - |
* Rain latest hour (hover to see other rain measurements)
** Current wind speed in m/s (hover to see current wind gust speed)